Location: *
(44.9308°N, 123.0197°W)
Time: 04:30:59
(UTC+00:00)

Cosmos 1627 Rocket - Pass Details

Date: 09 April 2020
Orbit: 951 x 1003 km, 82.9° (Epoch: 24 May)

Event Time Altitude Azimuth Distance (km) Brightness Sun altitude
Rises 12:39:34 0° 193° (SSW) 3,623 7.1 -10.5°
Reaches altitude 10° 12:42:04 10° 195° (SSW) 2,677 6.5 -10.1°
Maximum altitude 12:48:10 72° 280° (W) 1,003 4.4 -9.1°
Drops below altitude 10° 12:54:18 10° 4° (N) 2,689 7.2 -8.1°
Sets 12:56:49 0° 7° (N) 3,641 7.9 -7.7°
